CW9861 Weather Reports


Display with metric or nautical units.
time (UTC)temp
F
wind
direction
speed
MPH
gust
MPH
rain 1hr
in
rain 24hr
in
rain mn
in
humidity
%
barometer
mb
20260903214458 76 83 0.0 3.0 0.00 0.29 0.29 85 1013.0
20260903213958 76 20 1.0 3.0 0.00 0.29 0.29 85 1013.0
20260903213459 75 41 0.0 4.0 0.00 0.29 0.29 87 1013.0
20260903212959 74 271 1.0 2.0 0.00 0.29 0.29 89 1013.0
20260903212458 73 276 0.0 3.0 0.00 0.29 0.29 89 1012.9
20260903211958 73 64 1.0 3.0 0.00 0.29 0.29 89 1012.9
20260903211458 73 72 1.0 3.0 0.00 0.29 0.29 89 1012.8
20260903210958 73 85 0.0 3.0 0.00 0.29 0.29 89 1013.0
20260903210458 73 136 1.0 3.0 0.00 0.29 0.29 89 1013.0
20260903205959 73 75 1.0 4.0 0.00 0.29 0.29 90 1013.0
20260903205458 73 41 0.0 4.0 0.00 0.29 0.29 90 1012.7
20260903204958 72 49 1.0 4.0 0.00 0.29 0.29 90 1012.5
20260903204458 72 16 1.0 5.0 0.00 0.29 0.29 90 1012.6
20260903203958 72 129 1.0 5.0 0.00 0.29 0.29 90 1012.8
20260903203459 72 49 0.0 3.0 0.00 0.29 0.29 90 1013.0
20260903202958 72 103 0.0 4.0 0.00 0.29 0.29 90 1013.0
20260903202458 72 129 0.0 2.0 0.00 0.29 0.29 90 1013.4
20260903201957 73 129 1.0 2.0 0.00 0.29 0.29 90 1013.2
20260903201458 73 76 0.0 2.0 0.00 0.29 0.29 90 1013.5
20260903200958 73 68 0.0 1.0 0.00 0.29 0.29 90 1013.5
20260903193458 74 101 0.0 2.0 0.01 0.29 0.29 90 1013.8
20260903192958 74 101 1.0 2.0 0.03 0.29 0.29 90 1013.9
20260903192458 75 64 0.0 1.0 0.03 0.29 0.29 91 1014.1
20260903191958 73 41 0.0 1.0 0.03 0.29 0.29 91 1014.3
20260903191458 73 77 0.0 2.0 0.03 0.29 0.29 91 1014.5
20260903190958 73 77 1.0 2.0 0.03 0.29 0.29 90 1014.4
20260903190458 73 108 0.0 2.0 0.03 0.29 0.29 90 1014.4
20260903182959 76 211 1.0 4.0 0.24 0.26 0.26 89 1014.9
20260903182458 77 212 1.0 5.0 0.24 0.26 0.26 89 1014.7
20260903181958 76 211 1.0 5.0 0.24 0.26 0.26 89 1014.2
20260903181458 76 245 2.0 8.0 0.24 0.26 0.26 88 1013.9
20260903180959 76 328 2.0 10.0 0.24 0.26 0.26 87 1013.9
20260903180458 77 320 3.0 15.0 0.24 0.26 0.26 86 1013.9
20260903180001 80 234 2.0 16.0 0.24 0.26 0.26 82 1014.0
20260903175459 83 328 5.0 16.0 0.21 0.23 0.23 81 1014.1
20260903174958 84 220 2.0 8.0 0.18 0.20 0.20 80 1014.1
20260903174458 85 340 2.0 11.0 0.05 0.07 0.07 80 1013.7
20260903173957 85 289 3.0 10.0 0.01 0.03 0.03 79 1013.3
20260903173458 85 253 3.0 10.0 0.00 0.02 0.02 77 1013.2
20260903172959 87 13 5.0 9.0 0.00 0.02 0.02 76 1013.0
20260903172458 87 314 3.0 8.0 0.00 0.02 0.02 79 1012.6
20260903171958 86 10 2.0 8.0 0.00 0.02 0.02 80 1012.6
20260903171458 85 336 2.0 10.0 0.00 0.02 0.02 80 1012.7
20260903170959 85 281 3.0 10.0 0.00 0.02 0.02 79 1013.0
20260903170458 86 280 2.0 6.0 0.00 0.02 0.02 78 1012.8
20260903165958 87 213 2.0 5.0 0.00 0.02 0.02 78 1012.7
20260903165459 87 188 2.0 8.0 0.00 0.02 0.02 82 1012.3
20260903161958 85 242 1.0 6.0 0.00 0.02 0.02 85 1011.6
20260903161458 84 184 0.0 6.0 0.00 0.02 0.02 85 1011.9
20260903160958 83 305 3.0 6.0 0.00 0.02 0.02 86 1012.1
20260903160458 82 206 1.0 4.0 0.00 0.02 0.02 87 1012.0
20260903155959 82 151 1.0 4.0 0.00 0.02 0.02 87 1011.9
20260903155458 81 266 1.0 3.0 0.00 0.02 0.02 88 1012.0
20260903154959 81 145 0.0 3.0 0.00 0.02 0.02 89 1011.9
20260903154458 80 97 1.0 3.0 0.00 0.02 0.02 89 1012.1
20260903153958 80 18 1.0 3.0 0.00 0.02 0.02 88 1011.9
20260903153458 80 236 0.0 2.0 0.00 0.02 0.02 90 1011.9
20260903152959 80 215 0.0 0.0 0.00 0.02 0.02 89 1012.1
20260903152458 79 215 0.0 1.0 0.00 0.02 0.02 90 1012.1
20260903151958 79 227 0.0 1.0 0.00 0.02 0.02 90 1012.3
20260903151458 79 227 0.0 1.0 0.00 0.02 0.02 90 1012.3
20260903143958 78 106 0.0 1.0 0.00 0.02 0.02 90 1012.7
20260903143458 78 109 0.0 1.0 0.00 0.02 0.02 90 1012.7
20260903142958 78 44 0.0 1.0 0.00 0.02 0.02 91 1012.7
20260903142458 78 44 0.0 2.0 0.00 0.02 0.02 91 1012.7
20260903141958 78 44 1.0 2.0 0.00 0.02 0.02 91 1012.7
20260903141458 77 81 0.0 2.0 0.00 0.02 0.02 92 1012.5
20260903140958 77 79 0.0 2.0 0.00 0.02 0.02 92 1012.5
20260903140458 76 12 0.0 2.0 0.00 0.02 0.02 92 1012.7
20260903135958 76 64 0.0 1.0 0.00 0.02 0.02 92 1012.8
20260903135457 76 70 0.0 3.0 0.00 0.02 0.02 92 1012.6
20260903134959 76 52 0.0 3.0 0.02 0.02 0.02 93 1012.6
20260903134458 75 28 1.0 2.0 0.02 0.02 0.02 92 1012.5
20260903133959 75 43 1.0 2.0 0.02 0.02 0.02 92 1012.5
20260903133458 75 51 1.0 2.0 0.02 0.02 0.02 92 1012.7
20260903132958 75 66 0.0 2.0 0.02 0.02 0.02 92 1012.9
20260903132458 74 266 0.0 1.0 0.02 0.02 0.02 92 1013.1
20260903131957 74 266 0.0 1.0 0.02 0.02 0.02 92 1013.1
20260903131459 73 266 0.0 1.0 0.02 0.02 0.02 92 1013.0
20260903130958 73 266 0.0 1.0 0.02 0.02 0.02 92 1013.0
20260903130457 73 266 0.0 1.0 0.02 0.02 0.02 92 1013.0
20260903125958 73 266 0.0 1.0 0.02 0.02 0.02 92 1012.8
20260903125457 73 266 0.0 1.0 0.02 0.02 0.02 92 1012.7
20260903124958 73 266 0.0 0.0 0.00 0.00 0.00 92 1012.8
20260903124458 73 266 0.0 0.0 0.00 0.00 0.00 92 1012.7
20260903123957 73 266 0.0 0.0 0.00 0.00 0.00 92 1012.8
20260903123457 73 266 0.0 0.0 0.00 0.00 0.00 92 1012.8
20260903122958 73 266 0.0 0.0 0.00 0.00 0.00 93 1013.0
20260903122459 71 266 0.0 0.0 0.00 0.00 0.00 92 1013.0
20260903121958 70 266 0.0 0.0 0.00 0.00 0.00 92 1013.0
20260903121458 70 266 0.0 0.0 0.00 0.00 0.00 92 1013.0
20260903120958 70 266 0.0 0.0 0.00 0.00 0.00 92 1013.0
20260903120458 70 266 0.0 1.0 0.00 0.00 0.00 92 1013.0
20260903115958 69 266 0.0 0.0 0.00 0.00 0.00 92 1013.0
20260903115457 69 266 0.0 0.0 0.00 0.00 0.00 91 1013.0
20260903114958 69 266 0.0 0.0 0.00 0.00 0.00 91 1013.0
20260903114459 69 266 0.0 1.0 0.00 0.00 0.00 91 1013.0
20260903114000 69 266 0.0 1.0 0.00 0.00 0.00 91 1012.9
20260903113458 69 266 0.0 1.0 0.00 0.00 0.00 92 1012.8
20260903112959 69 266 0.0 0.0 0.00 0.00 0.00 91 1012.8
20260903112458 69 266 0.0 0.0 0.00 0.00 0.00 91 1012.7
20260903111958 69 266 0.0 0.0 0.00 0.00 0.00 91 1012.7
20260903111458 69 266 0.0 0.0 0.00 0.00 0.00 91 1012.7
20260903110958 69 266 0.0 0.0 0.00 0.00 0.00 91 1012.6
20260903110457 69 266 0.0 0.0 0.00 0.00 0.00 91 1012.6
20260903105959 69 266 0.0 1.0 0.00 0.00 0.00 91 1012.7
20260903105458 69 266 0.0 1.0 0.00 0.00 0.00 91 1012.6
20260903101958 69 266 0.0 0.0 0.00 0.00 0.00 91 1012.7
20260903101459 69 266 0.0 0.0 0.00 0.00 0.00 91 1012.5
20260903100957 69 266 0.0 0.0 0.00 0.00 0.00 91 1012.6
20260903100457 69 266 0.0 0.0 0.00 0.00 0.00 91 1012.6
20260903095958 69 266 0.0 0.0 0.00 0.00 0.00 91 1012.6
20260903095457 69 266 0.0 0.0 0.00 0.00 0.00 91 1012.7
20260903094958 69 266 0.0 0.0 0.00 0.00 0.00 91 1012.7
20260903094458 69 266 0.0 0.0 0.00 0.00 0.00 91 1012.7
20260903093958 70 266 0.0 0.0 0.00 0.00 0.00 91 1012.6
20260903093457 69 266 0.0 0.0 0.00 0.00 0.00 91 1012.6
20260903092958 70 266 0.0 0.0 0.00 0.00 0.00 91 1012.7
20260903092457 70 266 0.0 0.0 0.00 0.00 0.00 91 1012.6
20260903091959 70 266 0.0 0.0 0.00 0.00 0.00 91 1012.7
20260903091458 70 266 0.0 0.0 0.00 0.00 0.00 91 1012.6
20260903090958 70 266 0.0 0.0 0.00 0.00 0.00 91 1012.5
20260903090458 70 266 0.0 0.0 0.00 0.00 0.00 91 1012.6
20260903090000 70 266 0.0 0.0 0.00 0.00 0.00 91 1012.6
20260903085458 70 266 0.0 0.0 0.00 0.00 0.00 91 1012.6
20260903084959 70 266 0.0 0.0 0.00 0.00 0.00 91 1012.7
20260903084458 70 266 0.0 0.0 0.00 0.00 0.00 90 1012.7
20260903083958 70 266 0.0 0.0 0.00 0.00 0.00 90 1012.5
20260903083458 70 266 0.0 0.0 0.00 0.00 0.00 90 1012.6
20260903082959 70 266 0.0 0.0 0.00 0.00 0.00 90 1012.7
20260903082458 70 266 0.0 0.0 0.00 0.00 0.00 90 1012.7
20260903081958 70 266 0.0 0.0 0.00 0.00 0.00 90 1012.6
20260903081459 70 266 0.0 0.0 0.00 0.00 0.00 90 1012.5
20260903080959 70 266 0.0 0.0 0.00 0.00 0.00 91 1012.5
20260903080458 70 266 0.0 0.0 0.00 0.00 0.00 90 1012.5
20260903075959 70 266 0.0 0.0 0.00 0.00 0.00 90 1012.5
20260903075458 70 266 0.0 0.0 0.00 0.00 0.00 90 1012.6
20260903074958 70 266 0.0 0.0 0.00 0.00 0.00 90 1012.5
20260903074458 70 266 0.0 0.0 0.00 0.00 0.00 90 1012.5
20260903070957 71 266 0.0 0.0 0.00 0.00 0.00 90 1012.3
20260903070458 71 266 0.0 0.0 0.00 0.00 0.00 90 1012.3
20260903065958 71 266 0.0 0.0 0.00 0.00 0.00 90 1012.2
20260903065458 71 266 0.0 0.0 0.00 0.00 0.00 90 1012.3
20260903064957 71 266 0.0 0.0 0.00 0.00 0.00 90 1012.3
20260903064457 71 266 0.0 0.0 0.00 0.00 0.00 90 1012.3
20260903063957 70 266 0.0 0.0 0.00 0.00 0.00 90 1012.4
20260903063458 70 266 0.0 0.0 0.00 0.00 0.00 90 1012.4
20260903062957 70 266 0.0 0.0 0.00 0.00 0.00 89 1012.4
20260903062457 70 266 0.0 0.0 0.00 0.00 0.00 89 1012.4
20260903061958 70 266 0.0 0.0 0.00 0.00 0.00 89 1012.4
20260903061457 70 266 0.0 0.0 0.00 0.00 0.00 89 1012.4
20260903060958 70 266 0.0 0.0 0.00 0.00 0.00 89 1012.4
20260903060457 70 266 0.0 0.0 0.00 0.00 0.00 89 1012.4
20260903055958 70 266 0.0 0.0 0.00 0.00 0.00 89 1012.4
20260903055458 70 266 0.0 0.0 0.00 0.00 0.00 89 1012.4
20260903054958 70 266 0.0 0.0 0.00 0.00 0.00 89 1012.4
20260903054458 70 266 0.0 0.0 0.00 0.00 0.00 89 1012.4
20260903053958 70 266 0.0 0.0 0.00 0.00 0.00 89 1012.4
20260903050457 71 266 0.0 0.0 0.00 0.00 0.00 88 1012.3
20260903045958 71 266 0.0 0.0 0.00 0.00 0.00 88 1012.3
20260903045457 71 266 0.0 0.0 0.00 0.00 0.00 88 1012.2
20260903044957 71 266 0.0 0.0 0.00 0.00 0.00 88 1012.1
20260903044457 71 266 0.0 0.0 0.00 0.00 0.00 88 1012.1
20260903043957 72 266 0.0 0.0 0.00 0.00 0.00 88 1012.0
20260903043457 72 266 0.0 0.0 0.00 0.00 0.00 88 1012.0
20260903042959 72 266 0.0 0.0 0.00 0.00 0.00 88 1012.0
20260903042458 72 266 0.0 0.0 0.00 0.00 0.00 88 1011.9
20260903041957 72 266 0.0 0.0 0.00 0.00 0.00 88 1011.9
20260903041458 72 266 0.0 1.0 0.00 0.00 0.00 88 1011.9
20260903040958 72 266 0.0 1.0 0.00 0.00 0.00 88 1011.8
20260903040458 73 266 0.0 0.0 0.00 0.00 0.00 88 1011.9
20260903040003 73 266 0.0 0.0 0.00 0.00 0.00 88 1011.8
20260903035500 73 266 0.0 0.0 0.00 0.00 0.00 88 1011.7
20260903034959 73 266 0.0 0.0 0.00 0.00 0.00 88 1011.7
20260903034459 73 266 0.0 0.0 0.00 0.00 0.00 88 1011.8
20260903033959 73 266 0.0 0.0 0.00 0.00 0.00 88 1011.7
20260903033459 74 266 0.0 0.0 0.00 0.00 0.00 88 1011.7
20260903032959 74 266 0.0 0.0 0.00 0.00 0.00 88 1011.8
20260903032500 74 266 0.0 0.0 0.00 0.00 0.00 88 1011.7
20260903031959 74 266 0.0 0.0 0.00 0.00 0.00 88 1011.7
20260903031459 74 266 0.0 0.0 0.00 0.00 0.00 88 1011.8
20260903030959 74 266 0.0 0.0 0.00 0.00 0.00 88 1011.8
20260903030459 75 266 0.0 0.0 0.00 0.00 0.00 88 1011.9
20260903022958 76 266 0.0 0.0 0.00 0.00 0.00 86 1012.1
20260903022458 76 266 0.0 0.0 0.00 0.00 0.00 86 1012.1
20260903021958 76 266 0.0 0.0 0.00 0.00 0.00 86 1012.1
20260903021459 76 266 0.0 0.0 0.00 0.00 0.00 86 1012.1
20260903020958 76 266 0.0 0.0 0.00 0.00 0.00 86 1012.1
20260903020458 76 266 0.0 0.0 0.00 0.00 0.00 86 1012.1
20260903020000 76 266 0.0 0.0 0.00 0.00 0.00 86 1012.1
20260903015459 77 266 0.0 0.0 0.00 0.00 0.00 86 1012.1
20260903015000 77 266 0.0 0.0 0.00 0.00 0.00 86 1012.0
20260903014459 77 266 0.0 0.0 0.00 0.00 0.00 86 1012.0
20260903014000 77 266 0.0 1.0 0.00 0.00 0.00 86 1011.9
20260903013500 77 266 0.0 1.0 0.00 0.00 0.00 86 1011.9
20260903012959 77 266 0.0 1.0 0.00 0.00 0.00 86 1011.9
20260903012500 77 266 0.0 1.0 0.00 0.00 0.00 86 1011.9
20260903011959 78 259 0.0 2.0 0.00 0.00 0.00 85 1011.8
20260903011459 78 207 0.0 2.0 0.00 0.00 0.00 85 1011.8
20260903010959 78 212 0.0 1.0 0.00 0.00 0.00 85 1011.6
20260903010500 78 212 0.0 1.0 0.00 0.00 0.00 85 1011.8
20260903010000 78 212 0.0 1.0 0.00 0.00 0.00 84 1011.8
20260903005459 79 288 0.0 0.0 0.00 0.00 0.00 84 1011.6
20260903004958 79 288 0.0 0.0 0.00 0.00 0.00 84 1011.4
20260903004458 79 288 0.0 0.0 0.00 0.00 0.00 83 1011.5
20260903003958 79 288 0.0 1.0 0.00 0.00 0.00 83 1011.3
20260903003458 79 288 0.0 1.0 0.00 0.00 0.00 83 1011.3
20260903002958 80 288 0.0 1.0 0.00 0.00 0.00 83 1011.2
20260903002459 80 288 0.0 1.0 0.00 0.00 0.00 82 1011.2
20260902234459 81 266 0.0 2.0 0.00 0.00 0.00 81 1011.4
20260902233958 81 290 0.0 2.0 0.00 0.00 0.00 81 1011.2
20260902233459 81 336 0.0 2.0 0.00 0.00 0.00 80 1011.1
20260902232958 81 330 0.0 2.0 0.00 0.00 0.00 80 1011.1
20260902232459 81 324 1.0 2.0 0.00 0.00 0.00 81 1011.0
20260902231958 81 307 0.0 2.0 0.00 0.00 0.00 81 1011.0
20260902231458 81 276 0.0 1.0 0.00 0.00 0.00 80 1010.9
20260902230958 81 311 0.0 3.0 0.00 0.00 0.00 81 1010.9
20260902230458 81 258 1.0 3.0 0.00 0.00 0.00 80 1011.0
20260902225958 81 266 0.0 1.0 0.00 0.00 0.00 81 1011.0
20260902225458 81 255 0.0 1.0 0.00 0.00 0.00 81 1011.1
20260902224958 81 323 0.0 3.0 0.00 0.00 0.00 81 1011.0
20260902224459 81 4 0.0 3.0 0.00 0.00 0.00 80 1011.1
20260902223958 81 236 1.0 3.0 0.00 0.00 0.00 80 1011.2
20260902223458 81 243 0.0 1.0 0.00 0.00 0.00 80 1011.4
20260902222958 81 302 0.0 2.0 0.00 0.00 0.00 80 1011.4
20260902222458 81 234 0.0 3.0 0.00 0.00 0.00 79 1011.3
20260902221959 81 306 0.0 3.0 0.00 0.00 0.00 79 1011.2
20260902221457 82 283 0.0 6.0 0.00 0.00 0.00 79 1011.4